Regional Weather Roundup
Issued by NWS Little Rock, AR

Home | Current Version | Previous Version | Text Only | Print | Product List | Glossary Off
Versions: 1 2 3 4 5 6 7 8 9 10 11 12 13 14 15 16 17 18 19 20 21 22 23 24 25 26 27 28 29 30 31 32 33 34 35 36 37 38 39 40 41 42 43 44 45 46 47 48 49 50

000
ASUS44 KLZK 211805
RWRLZK

WEATHER ROUNDUP FOR ARKANSAS
NATIONAL WEATHER SERVICE LITTLE ROCK AR
100 PM CDT MON AUG 21 2017

NOTE: "FAIR" INDICATES FEW OR NO CLOUDS BELOW 12,000 FEET WITH NO
SIGNIFICANT WEATHER AND/OR OBSTRUCTIONS TO VISIBILITY.

ARZ001-003-010-029-211900-
NORTHWEST ARKANSAS

CITY           SKY/WX    TMP DP  RH WIND       PRES   REMARKS
FAYETTEVILLE   SUNNY     84  74  71 SW7       30.12F HX  91
6HR MIN TEMP:  69; 6HR MAX TEMP:  87;

FORT SMITH     SUNNY     88  76  67 E5        30.08F HX  99
6HR MIN TEMP:  74; 6HR MAX TEMP:  90;

HARRISON       SUNNY     86  69  56 S8        30.14F HX  90
6HR MIN TEMP:  73; 6HR MAX TEMP:  88;

BENTONVILLE    SUNNY     86  72  62 SW9       30.13F HX  92
6HR MIN TEMP:  73; 6HR MAX TEMP:  88;

ROGERS         SUNNY     86  73  65 S10       30.13  HX  93
6HR MIN TEMP:  73; 6HR MAX TEMP:  88;

HIGHFILL       SUNNY     85  74  69 S7        30.12F HX  92
6HR MIN TEMP:  71; 6HR MAX TEMP:  87;

SPRINGDALE     SUNNY     86  73  66 S7        30.14F HX  93
$$

ARZ004-005-016-211900-
NORTH CENTRAL ARKANSAS

CITY           SKY/WX    TMP DP  RH WIND       PRES   REMARKS
BATESVILLE     MOSUNNY   90  73  58 S3        30.12S HX  98
6HR MIN TEMP:  73; 6HR MAX TEMP:  90;

FLIPPIN        SUNNY     90  70  51 CALM      30.09F HX  95
6HR MIN TEMP:  72; 6HR MAX TEMP:  91;

MTN HOME       SUNNY     87  73  62 SW5       30.12F HX  94
6HR MIN TEMP:  71; 6HR MAX TEMP:  89;

$$

ARZ040-041-211900-
WEST CENTRAL ARKANSAS

CITY           SKY/WX    TMP DP  RH WIND       PRES   REMARKS
MENA           SUNNY     88  79  74 CALM      30.13F HX 102
MOUNT IDA      SUNNY     88  69  53 CALM      30.11F HX  92
6HR MIN TEMP:  71; 6HR MAX TEMP:  90;

$$

ARZ009-017-025-026-028-211900-
NORTHEAST ARKANSAS

CITY           SKY/WX    TMP DP  RH WIND       PRES   REMARKS
CORNING        FAIR      90  82  79 SW5       30.10F HX 111
JONESBORO      PTSUNNY   90  79  70 SE5       30.10F HX 106
6HR MIN TEMP:  74; 6HR MAX TEMP:  92;

NEWPORT        SUNNY     90  77  65 S8        30.11F HX 103
6HR MIN TEMP:  72; 6HR MAX TEMP:  91;

WALNUT RIDGE   MOSUNNY   90  75  62 SW5       30.11S HX 100
6HR MIN TEMP:  72; 6HR MAX TEMP:  90;

BLYTHEVILLE    PTSUNNY   91  77  63 CALM      30.11F HX 104
6HR MIN TEMP:  75; 6HR MAX TEMP:  94;

NW BLYTHEVILLE MOSUNNY   93  77  59 S5        30.11F HX 107
$$

ARZ022-023-033-042-044-211900-
CENTRAL ARKANSAS

CITY           SKY/WX    TMP DP  RH WIND       PRES   REMARKS
LITTLE ROCK    MOSUNNY   89  74  60 S6        30.11F HX  98
6HR MIN TEMP:  76; 6HR MAX TEMP:  91;

JACKSONVILLE   MOSUNNY   90  76  62 S6        30.10F HX 102
6HR MIN TEMP:  77; 6HR MAX TEMP:  92;

CONWAY           N/A     90  77  66 VRB6      30.08F HX 102
SEARCY         PTSUNNY   89  78  70 S5        30.12F HX 103
6HR MIN TEMP:  74; 6HR MAX TEMP:  92;

HOT SPRINGS    MOSUNNY   89  74  60 SW7       30.11F HX  98
6HR MIN TEMP:  75; 6HR MAX TEMP:  91;

RUSSELLVILLE   SUNNY     87  74  64 S3        30.09F HX  95
6HR MIN TEMP:  74; 6HR MAX TEMP:  89;

$$

ARZ036-211900-
EAST ARKANSAS

CITY           SKY/WX    TMP DP  RH WIND       PRES   REMARKS
WEST MEMPHIS   MOSUNNY   90  76  63 W5        30.10F HX 101
6HR MIN TEMP:  75; 6HR MAX TEMP:  92;

$$

ARZ050-053-066-070-073-211900-
SOUTHWEST ARKANSAS

CITY           SKY/WX    TMP DP  RH WIND       PRES   REMARKS
ARKADELPHIA    FAIR      89  76  65 S3        30.11F HX 100
6HR MIN TEMP:  72; 6HR MAX TEMP:  91;

CAMDEN         MOSUNNY   91  73  55 CALM      30.10F HX 100
TEXARKANA      MOSUNNY   87  75  67 S7        30.11F HX  96
6HR MIN TEMP:  74; 6HR MAX TEMP:  88;

EL DORADO      SUNNY     90  72  55 CALM      30.11F HX  97
6HR MIN TEMP:  73; 6HR MAX TEMP:  93;

DE QUEEN       MOSUNNY   88  76  67 S5        30.08F HX  99
6HR MIN TEMP:  72; 6HR MAX TEMP:  89;

$$

ARZ056-057-069-211900-
SOUTHEAST ARKANSAS

CITY           SKY/WX    TMP DP  RH WIND       PRES   REMARKS
PINE BLUFF     SUNNY     90  75  61 S5        30.11F HX 100
6HR MIN TEMP:  74; 6HR MAX TEMP:  91;

MONTICELLO     MOSUNNY   90  73  57 CALM      30.11F HX  98
6HR MIN TEMP:  75; 6HR MAX TEMP:  92;


$$





USA.gov is the U.S. government's official web portal to all federal, state and local government web resources and services.